When you browse on this site, cookies collect data to enhance your experience and personalize the content and advertising you see.
Visit our Privacy Policy to learn more. By continuing to use the site, you agree to this use of cookies and data.
  • En España
  • Lista de países
  • Para 7 días
  • Temperatura del agua
  • El tiempo en el mapa
  • Informadores
  • user-avatar
    Iniciar sesión

    Tiempo cada hora Tarim

    Hoy, 13 Noviembre, Miércoles

    Tiempo Temperatura Precipitaciones Viento Presión Humedad
    00:00 +20°C° 0 mm 3 mps 708 mmHg 46%
    01:00 +19°C° 0 mm 2 mps 707 mmHg 52%
    02:00 +19°C° 0 mm 2 mps 707 mmHg 58%
    03:00 +19°C° 0 mm 1 mps 706 mmHg 65%
    04:00 +18°C° 0 mm 1 mps 707 mmHg 69%
    05:00 +18°C° 0 mm 1 mps 707 mmHg 73%
    06:00 +18°C° 0 mm 1 mps 708 mmHg 77%
    07:00 +21°C° 0 mm 1 mps 708 mmHg 66%
    08:00 +24°C° 0 mm 2 mps 709 mmHg 54%
    09:00 +26°C° 0 mm 2 mps 709 mmHg 42%
    10:00 +28°C° 0 mm 2 mps 709 mmHg 37%
    11:00 +30°C° 0 mm 2 mps 708 mmHg 31%
    12:00 +31°C° 0 mm 3 mps 708 mmHg 25%
    13:00 +33°C° 0 mm 3 mps 707 mmHg 23%
    14:00 +33°C° 0 mm 3 mps 707 mmHg 20%
    15:00 +34°C° 0 mm 3 mps 706 mmHg 18%
    16:00 +32°C° 0 mm 4 mps 706 mmHg 20%
    17:00 +29°C° 0 mm 5 mps 707 mmHg 23%
    18:00 +27°C° 0 mm 5 mps 707 mmHg 26%
    19:00 +26°C° 0 mm 5 mps 707 mmHg 27%
    20:00 +23°C° 0 mm 5 mps 708 mmHg 29%
    21:00 +22°C° 0 mm 5 mps 708 mmHg 31%
    22:00 +21°C° 0 mm 4 mps 708 mmHg 33%
    23:00 +20°C° 0 mm 3 mps 708 mmHg 35%

    Mañana, 14 Noviembre, Jueves

    Tiempo Temperatura Precipitaciones Viento Presión Humedad
    00:00 +18°C° 0 mm 2 mps 708 mmHg 37%
    01:00 +19°C° 0 mm 1 mps 708 mmHg 40%
    02:00 +18°C° 0 mm 1 mps 707 mmHg 44%
    03:00 +16°C° 0 mm 1 mps 707 mmHg 47%
    04:00 +15°C° 0 mm 1 mps 707 mmHg 47%
    05:00 +15°C° 0 mm 1 mps 708 mmHg 48%
    06:00 +14°C° 0 mm 0 mps 708 mmHg 48%
    07:00 +19°C° 0 mm 1 mps 709 mmHg 39%
    08:00 +23°C° 0 mm 1 mps 709 mmHg 30%
    09:00 +26°C° 0 mm 2 mps 710 mmHg 22%
    10:00 +27°C° 0 mm 2 mps 709 mmHg 20%
    11:00 +29°C° 0 mm 2 mps 709 mmHg 19%
    12:00 +30°C° 0 mm 2 mps 708 mmHg 17%
    13:00 +31°C° 0 mm 3 mps 708 mmHg 17%
    14:00 +32°C° 0 mm 5 mps 707 mmHg 17%
    15:00 +33°C° 0 mm 6 mps 707 mmHg 17%
    16:00 +30°C° 0 mm 5 mps 707 mmHg 21%
    17:00 +28°C° 0 mm 5 mps 707 mmHg 24%
    18:00 +25°C° 0 mm 5 mps 707 mmHg 28%
    19:00 +23°C° 0 mm 4 mps 708 mmHg 31%
    20:00 +22°C° 0 mm 4 mps 708 mmHg 34%
    21:00 +21°C° 0 mm 3 mps 708 mmHg 37%
    22:00 +20°C° 0 mm 3 mps 708 mmHg 38%
    23:00 +20°C° 0 mm 3 mps 708 mmHg 40%

    Pasado mañana, 15 Noviembre, Viernes

    Tiempo Temperatura Precipitaciones Viento Presión Humedad
    00:00 +19°C° 0 mm 3 mps 708 mmHg 42%
    01:00 +18°C° 0 mm 2 mps 707 mmHg 45%
    02:00 +17°C° 0 mm 2 mps 707 mmHg 49%
    03:00 +16°C° 0 mm 1 mps 706 mmHg 52%
    04:00 +16°C° 0 mm 1 mps 707 mmHg 55%
    05:00 +16°C° 0 mm 1 mps 707 mmHg 57%
    06:00 +15°C° 0 mm 1 mps 708 mmHg 59%
    07:00 +19°C° 0 mm 1 mps 708 mmHg 55%
    08:00 +21°C° 0 mm 2 mps 709 mmHg 51%
    09:00 +25°C° 0 mm 2 mps 709 mmHg 47%
    10:00 +26°C° 0 mm 2 mps 709 mmHg 42%
    11:00 +28°C° 0 mm 2 mps 708 mmHg 36%
    12:00 +29°C° 0 mm 2 mps 707 mmHg 31%
    13:00 +30°C° 0 mm 2 mps 707 mmHg 29%
    14:00 +31°C° 0 mm 2 mps 706 mmHg 27%
    15:00 +31°C° 0 mm 2 mps 706 mmHg 25%
    16:00 +29°C° 0 mm 2 mps 706 mmHg 28%
    17:00 +27°C° 0 mm 2 mps 706 mmHg 31%
    18:00 +25°C° 0 mm 2 mps 706 mmHg 35%
    19:00 +24°C° 0 mm 2 mps 706 mmHg 42%
    20:00 +21°C° 0 mm 2 mps 707 mmHg 49%
    21:00 +20°C° 0 mm 2 mps 707 mmHg 56%
    22:00 +20°C° 0 mm 1 mps 707 mmHg 61%
    23:00 +19°C° 0 mm 1 mps 707 mmHg 66%

    16 Noviembre, Sábado

    Tiempo Temperatura Precipitaciones Viento Presión Humedad
    00:00 +19°C° 0 mm 1 mps 706 mmHg 71%
    01:00 +18°C° 0 mm 1 mps 706 mmHg 76%
    02:00 +18°C° 0 mm 1 mps 706 mmHg 81%
    03:00 +18°C° 0 mm 1 mps 706 mmHg 85%
    04:00 +18°C° 0 mm 1 mps 706 mmHg 88%
    05:00 +16°C° 0 mm 1 mps 706 mmHg 90%
    06:00 +16°C° 0 mm 1 mps 707 mmHg 92%
    07:00 +19°C° 0 mm 1 mps 707 mmHg 82%
    08:00 +21°C° 0 mm 2 mps 708 mmHg 71%
    09:00 +24°C° 0 mm 3 mps 708 mmHg 61%
    10:00 +26°C° 0 mm 2 mps 707 mmHg 52%
    11:00 +28°C° 0 mm 2 mps 707 mmHg 42%
    12:00 +30°C° 0 mm 2 mps 706 mmHg 33%
    13:00 +30°C° 0 mm 2 mps 706 mmHg 30%
    14:00 +31°C° 0 mm 3 mps 706 mmHg 27%
    15:00 +33°C° 0 mm 3 mps 705 mmHg 25%
    16:00 +30°C° 0 mm 3 mps 705 mmHg 29%
    17:00 +28°C° 0 mm 3 mps 706 mmHg 33%
    18:00 +26°C° 0 mm 3 mps 706 mmHg 37%
    19:00 +24°C° 0 mm 3 mps 706 mmHg 48%
    20:00 +22°C° 0 mm 3 mps 706 mmHg 59%
    21:00 +20°C° 0 mm 3 mps 707 mmHg 70%
    22:00 +19°C° 0 mm 2 mps 707 mmHg 76%
    23:00 +19°C° 0 mm 2 mps 706 mmHg 82%

    17 Noviembre, Domingo

    Tiempo Temperatura Precipitaciones Viento Presión Humedad
    00:00 +19°C° 0 mm 1 mps 706 mmHg 87%
    01:00 +18°C° 0 mm 1 mps 706 mmHg 88%
    02:00 +18°C° 0 mm 1 mps 706 mmHg 90%
    03:00 +16°C° 0 mm 1 mps 706 mmHg 91%
    04:00 +16°C° 0 mm 1 mps 706 mmHg 92%
    05:00 +16°C° 0 mm 1 mps 707 mmHg 92%
    06:00 +16°C° 0 mm 1 mps 707 mmHg 93%
    07:00 +18°C° 0 mm 2 mps 708 mmHg 82%
    08:00 +21°C° 0 mm 2 mps 708 mmHg 70%
    09:00 +24°C° 0 mm 3 mps 709 mmHg 59%
    10:00 +26°C° 0 mm 3 mps 708 mmHg 49%
    11:00 +28°C° 0 mm 3 mps 708 mmHg 39%
    12:00 +30°C° 0 mm 4 mps 707 mmHg 29%
    13:00 +32°C° 0 mm 4 mps 707 mmHg 26%
    14:00 +33°C° 0 mm 4 mps 706 mmHg 23%
    15:00 +33°C° 0 mm 5 mps 706 mmHg 20%
    16:00 +30°C° 0 mm 4 mps 706 mmHg 24%
    17:00 +28°C° 0 mm 4 mps 707 mmHg 29%
    18:00 +26°C° 0 mm 4 mps 707 mmHg 33%
    19:00 +24°C° 0 mm 3 mps 707 mmHg 45%
    20:00 +21°C° 0 mm 3 mps 707 mmHg 57%
    21:00 +19°C° 0 mm 2 mps 708 mmHg 69%
    22:00 +19°C° 0 mm 2 mps 708 mmHg 73%
    23:00 +18°C° 0 mm 2 mps 707 mmHg 77%

    18 Noviembre, Lunes

    Tiempo Temperatura Precipitaciones Viento Presión Humedad
    00:00 +19°C° 0 mm 1 mps 707 mmHg 81%
    01:00 +18°C° 0 mm 1 mps 707 mmHg 84%
    02:00 +18°C° 0 mm 1 mps 707 mmHg 86%
    03:00 +16°C° 0 mm 1 mps 706 mmHg 89%
    04:00 +16°C° 0 mm 1 mps 707 mmHg 90%
    05:00 +15°C° 0 mm 1 mps 707 mmHg 91%
    06:00 +15°C° 0 mm 1 mps 707 mmHg 92%
    07:00 +18°C° 0 mm 2 mps 708 mmHg 81%
    08:00 +20°C° 0 mm 2 mps 708 mmHg 69%
    09:00 +24°C° 0 mm 2 mps 709 mmHg 58%
    10:00 +26°C° 0 mm 2 mps 708 mmHg 47%
    11:00 +28°C° 0 mm 2 mps 708 mmHg 35%
    12:00 +31°C° 0 mm 2 mps 707 mmHg 24%
    13:00 +31°C° 0 mm 3 mps 707 mmHg 22%
    14:00 +33°C° 0 mm 3 mps 707 mmHg 19%
    15:00 +34°C° 0 mm 3 mps 706 mmHg 17%
    16:00 +31°C° 0 mm 3 mps 707 mmHg 20%
    17:00 +28°C° 0 mm 3 mps 707 mmHg 23%
    18:00 +26°C° 0 mm 3 mps 707 mmHg 25%
    19:00 +24°C° 0 mm 3 mps 707 mmHg 34%
    20:00 +23°C° 0 mm 2 mps 707 mmHg 43%
    21:00 +20°C° 0 mm 2 mps 707 mmHg 51%
    22:00 +20°C° 0 mm 1 mps 707 mmHg 60%
    23:00 +19°C° 0 mm 1 mps 707 mmHg 68%
    Mostrar más